Probability
4 3 2 2 4 6 6 6 6 7 8 9 10 9 7 5 4 3 1 0 0 0 0 0 0 0 0 0 0 0 0 0 0 0 0 0 0 0 0 0 1 1 1
3 2 2 2 4 5 6 7 7 8 9 9 9 8 7 7 5 4 2 1 0 1 1 0 0 0 0 0 0 0 0 0 0 0 0 0 0 0 0 0 0 1 1
2 2 3 4 4 4 5 6 7 8 9 8 7 7 7 7 6 4 3 1 1 1 1 0 0 0 0 0 0 0 0 0 0 0 0 0 0 0 0 0 0 1 1
2 3 5 6 4 3 3 5 7 8 8 7 6 6 6 6 6 5 4 2 1 1 1 0 0 0 0 0 0 0 0 0 0 0 0 0 0 0 0 0 0 0 0
3 5 7 8 6 4 3 5 7 8 9 8 7 6 6 6 6 6 5 2 1 0 0 0 0 0 0 0 0 0 0 0 0 0 0 0 0 0 0 0 0 0 0
6 7 8 9 7 5 5 6 7 8 9 9 8 7 7 6 6 6 6 4 3 1 0 0 0 0 0 0 0 0 0 0 0 0 0 0 0 0 0 0 1 0 0
7 8 9 9 8 7 6 6 6 7 10 11 10 9 7 6 6 6 6 6 5 2 0 0 0 0 0 0 0 0 0 0 0 0 0 0 0 0 0 0 0 0 0
7 9 10 10 9 8 7 6 5 7 10 12 13 11 9 7 7 8 7 6 4 2 0 0 0 0 0 0 0 0 0 0 0 0 0 0 0 0 0 0 0 0 0
7 8 10 11 10 8 6 6 5 6 10 13 13 12 11 9 8 9 9 6 3 1 0 0 0 0 0 0 0 0 0 0 0 0 0 0 0 0 0 0 0 0 0
6 7 9 11 10 8 6 6 5 5 6 10 12 13 13 11 9 10 9 5 2 1 0 0 0 0 0 0 0 0 0 0 0 0 0 0 0 0 0 0 0 0 0
5 6 8 10 10 9 7 6 5 3 3 6 10 12 13 12 10 10 9 6 3 2 1 1 0 0 0 0 0 0 0 0 0 0 0 0 0 0 0 0 0 0 0
5 5 7 9 11 10 8 7 6 4 2 4 8 10 11 12 11 10 10 8 5 3 2 1 0 0 0 0 0 0 0 0 0 0 0 0 0 0 0 0 0 0 0
4 4 6 8 10 10 8 7 6 5 4 5 6 8 9 11 11 11 11 10 7 5 4 3 1 0 1 1 1 1 0 1 1 0 0 0 0 0 0 0 0 0 0
3 3 4 7 8 8 7 6 6 6 6 6 6 6 7 9 10 11 11 10 8 6 6 5 2 1 2 2 2 2 2 2 2 1 1 0 0 0 0 0 0 0 0
2 2 3 5 7 7 7 6 5 5 5 6 5 5 6 7 9 10 10 9 8 7 7 5 3 2 3 3 3 3 3 3 3 3 2 1 0 0 0 0 0 0 0
2 2 3 4 5 6 6 6 5 4 4 5 5 5 6 7 7 8 8 7 7 7 6 5 4 3 3 3 3 3 3 3 3 3 3 2 1 0 0 0 0 0 0
3 2 3 3 4 4 5 5 5 4 3 4 4 5 6 7 6 5 5 4 4 5 5 5 5 4 3 3 3 3 3 3 4 3 3 3 2 1 0 0 0 0 0
3 3 3 3 3 3 4 3 3 3 3 3 4 5 6 6 5 4 4 4 4 4 5 6 7 6 3 2 2 2 3 4 5 4 3 3 2 1 0 0 0 0 0
4 3 2 1 2 3 3 2 2 2 3 4 5 6 6 5 4 4 4 5 6 6 7 7 7 5 2 0 1 1 2 3 4 4 3 2 1 0 0 0 0 0 0
3 2 1 0 1 1 2 1 0 1 3 4 5 6 6 6 5 5 4 5 6 7 8 9 8 6 2 1 0 1 2 2 3 2 1 1 0 0 0 0 0 0 0
3 3 1 0 0 0 0 0 1 1 3 3 4 4 5 6 6 6 5 5 5 5 7 8 9 7 4 2 1 1 2 2 2 1 0 0 0 0 0 0 0 0 0
3 3 2 0 0 0 1 1 2 3 3 3 3 3 4 5 6 6 6 6 5 5 6 7 9 8 5 3 1 0 1 2 1 0 0 0 0 0 0 0 0 0 0
3 2 1 0 0 1 2 3 3 3 3 3 3 3 3 4 5 6 6 6 6 6 6 7 7 7 6 2 0 0 0 0 0 0 0 0 0 0 0 0 0 0 0
2 1 0 0 0 1 2 3 3 3 3 3 3 3 3 3 4 5 5 6 6 5 5 6 6 6 5 3 1 0 0 0 0 0 0 0 0 0 0 0 0 0 0
2 1 0 0 0 1 1 1 2 3 3 3 2 2 2 1 1 2 3 3 3 3 3 4 4 4 3 2 1 0 0 0 0 0 0 0 0 0 0 0 0 0 0
1 0 0 0 0 0 0 0 1 2 2 2 1 1 1 0 0 0 1 1 1 1 1 2 3 3 2 1 0 0 0 0 0 0 0 0 0 0 0 0 0 0 0
Wind_Speed
6 6 5 5 4 4 4 4 4 3 3 2 2 2 2 2 2 3 4 4 4 4 3 3 3 3 3 2 3 2 3 2 2 2 2 2 2 2 2 2 2 3 3
6 6 6 5 4 4 3 3 3 3 3 2 2 2 2 2 3 2 3 3 3 4 3 3 3 3 2 3 3 3 2 2 2 1 1 1 2 2 1 2 2 3 2
7 7 5 5 4 3 3 2 3 4 3 3 2 3 2 2 2 2 2 3 3 3 3 3 3 3 3 2 2 3 3 2 2 2 1 1 0 1 2 2 2 2 2
6 7 6 5 4 3 3 3 3 3 3 3 3 3 2 2 1 1 1 2 3 3 3 3 3 3 2 2 2 2 1 2 2 2 2 1 1 1 1 2 1 2 2
6 6 6 5 4 3 2 3 3 3 3 3 3 2 2 2 1 2 2 2 2 2 2 2 2 2 2 2 2 2 2 1 1 1 2 3 2 1 1 1 1 1 1
5 5 6 5 4 3 3 2 3 3 3 2 3 3 3 2 2 2 2 1 1 1 2 3 3 2 2 2 2 2 2 1 1 1 1 1 1 1 0 1 1 0 1
6 6 6 5 3 3 3 3 3 3 3 2 2 2 3 3 3 2 2 1 1 1 1 2 2 2 1 2 2 1 1 1 1 1 1 1 1 1 0 0 1 0 1
6 6 6 5 4 4 3 3 2 2 2 2 2 2 2 2 2 2 2 1 1 1 1 1 1 1 1 2 2 1 1 2 1 2 2 1 2 2 1 0 0 1 1
5 5 5 5 4 4 3 3 3 2 2 2 2 2 2 2 2 2 2 2 1 2 2 1 1 1 1 1 1 1 1 2 2 2 2 1 1 1 1 1 0 1 0
5 5 4 4 4 3 2 2 2 2 2 2 2 2 2 3 2 2 3 2 1 2 2 1 1 1 1 1 1 1 1 0 1 1 1 2 1 2 1 1 1 1 1
5 5 4 4 3 3 3 2 2 2 2 2 2 2 2 2 2 2 2 2 2 2 2 1 1 1 1 1 1 1 1 1 1 1 1 2 2 2 1 1 1 1 1
3 4 4 4 3 3 3 2 3 2 2 2 2 2 2 2 2 2 2 2 1 1 2 2 1 1 0 1 1 0 1 1 1 2 2 2 2 2 1 0 1 1 1
3 3 4 3 3 2 2 2 2 3 2 2 2 2 2 2 3 2 2 2 1 1 1 2 1 1 1 0 0 0 0 1 1 1 2 2 2 2 2 1 1 1 1
2 2 3 3 3 3 2 2 1 2 2 2 2 2 2 2 3 2 2 2 1 1 1 2 2 1 1 1 0 1 1 1 1 1 1 2 1 2 2 1 1 1 0
2 2 2 1 1 2 2 2 1 1 1 2 2 2 2 2 2 2 2 1 1 2 1 1 1 1 1 0 1 1 1 1 1 1 1 1 1 2 2 1 1 1 0
2 2 1 1 1 0 1 1 1 2 1 1 2 2 2 3 3 2 2 2 1 1 1 2 2 1 0 0 2 2 1 1 1 1 1 1 0 2 3 3 3 1 1
2 2 2 1 0 1 1 1 1 1 2 2 1 2 3 3 3 3 2 2 2 2 1 2 2 2 2 1 1 3 2 2 1 1 1 1 1 1 1 3 3 3 3
2 2 2 1 1 1 1 1 2 2 2 2 2 2 2 2 3 3 3 3 2 2 1 2 2 2 2 2 1 3 2 2 1 1 1 0 0 1 1 1 1 1 2
2 1 2 2 2 1 1 2 2 2 2 2 2 2 2 2 3 3 3 3 2 2 2 2 2 2 2 2 1 1 2 2 2 1 1 0 0 2 3 1 1 1 1
1 1 2 2 2 1 1 1 2 2 2 2 2 2 2 3 3 3 3 2 2 2 2 2 2 2 2 2 1 1 1 2 2 1 1 1 1 3 4 1 1 2 2
1 1 1 2 2 2 1 1 1 1 1 1 1 2 2 2 3 2 2 2 2 2 2 2 2 2 2 2 1 1 1 1 1 1 1 1 1 2 3 2 1 2 2
1 1 1 2 2 2 2 1 1 1 1 1 1 2 2 2 2 2 2 2 2 2 2 2 1 1 2 2 1 2 2 2 1 1 1 1 1 2 2 2 3 3 3
1 1 1 1 2 2 2 2 2 1 0 1 1 2 2 2 1 2 2 2 2 2 2 2 2 1 1 1 2 2 3 3 2 1 2 2 1 2 2 3 3 2 1
1 1 1 1 1 2 2 2 2 1 1 1 1 2 1 1 1 1 1 2 2 2 2 2 2 1 1 1 1 1 2 2 2 1 1 2 2 2 2 2 2 2 2
2 1 1 1 1 1 2 2 2 1 1 1 1 1 1 1 1 1 1 1 2 3 3 3 2 2 2 2 2 2 2 2 2 1 0 0 0 1 1 1 1 1 1
2 1 1 2 2 2 2 2 2 2 1 1 1 1 1 1 1 1 0 0 1 2 3 3 3 2 2 1 2 2 2 2 1 1 1 1 1 1 1 1 1 1 1
Wind_Direction
154 143 136 126 124 118 110 108 107 96 93 88 85 84 76 65 55 53 43 39 49 51 49 43 52 52 54 35 28 30 33 35 36 49 29 35 63 56 64 64 70 68 61
148 140 139 136 138 128 111 109 110 102 101 95 105 106 88 76 73 56 47 36 41 45 47 45 54 54 55 40 33 39 32 8 28 47 28 14 10 6 58 71 79 72 57
155 145 144 142 136 127 125 130 116 106 100 101 86 87 77 72 70 70 57 37 40 50 51 48 50 56 60 49 43 44 44 9 355 18 53 76 338 328 3 47 71 78 64
151 144 144 136 133 131 136 135 124 121 120 123 113 113 112 112 118 105 93 67 49 50 47 52 57 53 51 57 44 47 45 37 358 349 2 22 115 123 332 341 26 74 82
146 142 139 132 133 129 129 137 134 131 125 120 131 130 120 128 112 91 87 77 53 54 48 46 66 64 56 57 41 42 40 43 28 11 354 359 356 17 114 287 320 2 20
143 138 130 127 133 135 132 132 126 124 130 143 150 138 129 124 110 100 100 94 70 40 46 43 51 56 55 49 33 39 28 17 12 14 32 17 352 334 1 262 249 256 283
143 137 132 132 136 133 133 138 141 151 155 159 149 148 140 149 147 139 132 121 107 68 62 55 54 53 48 55 37 34 14 14 19 11 359 9 333 331 14 70 279 291 287
147 145 145 147 147 144 145 149 146 151 156 162 162 145 143 147 143 144 137 142 133 130 114 75 74 64 53 47 37 22 5 17 24 7 5 13 351 360 18 67 59 331 318
147 150 148 144 144 149 158 162 150 150 154 168 168 146 135 135 145 148 132 127 125 139 120 103 88 78 72 64 53 39 15 12 10 357 3 8 359 343 350 15 85 158 262
149 147 145 148 152 154 167 162 155 166 164 146 155 139 134 141 145 132 124 129 151 135 138 146 125 112 87 73 64 22 356 19 339 351 2 352 336 350 5 7 352 10 172
147 149 149 148 149 155 169 172 168 168 155 152 154 155 153 147 141 129 129 142 160 156 157 151 145 112 101 98 90 20 346 356 356 355 353 336 344 2 347 6 4 356 23
134 141 143 142 142 153 169 175 173 171 168 163 158 160 152 149 150 139 141 145 164 182 160 153 154 146 116 121 139 244 22 6 349 337 340 331 348 356 327 357 347 327 331
127 132 134 141 153 159 169 182 186 170 168 171 156 150 155 151 146 146 158 164 167 182 179 162 168 171 174 135 84 84 24 346 340 341 340 338 354 334 330 317 288 300 338
132 126 124 141 168 173 178 184 182 153 161 176 161 153 161 150 146 152 159 174 169 176 201 174 182 178 178 154 71 356 332 343 354 356 350 345 344 322 315 312 304 311 317
106 110 113 110 144 164 172 179 176 164 168 173 168 165 158 143 145 154 173 181 184 200 204 179 173 166 183 126 23 318 333 317 312 312 292 288 313 331 324 326 314 334 303
42 32 82 99 93 103 197 192 189 177 169 171 178 165 160 154 160 168 169 172 189 208 212 204 184 177 198 6 350 343 298 268 258 275 274 264 303 357 353 338 340 322 263
31 10 1 25 258 252 261 241 233 189 183 184 177 179 165 156 165 177 176 181 193 199 227 221 174 164 178 184 314 325 313 286 259 260 277 306 12 15 348 335 338 344 339
15 6 342 332 314 268 242 233 227 216 204 196 185 179 164 167 173 180 184 193 195 190 203 219 205 178 197 215 262 312 295 282 270 267 266 237 185 330 334 316 323 320 334
15 353 330 313 292 277 236 214 213 220 210 202 204 197 176 180 184 184 190 197 195 198 198 209 201 184 200 216 240 303 275 273 274 285 314 347 130 317 327 310 280 288 285
25 352 332 325 317 321 313 234 205 195 218 221 217 202 189 195 195 188 188 197 198 202 201 207 195 183 184 203 241 282 244 262 270 268 297 344 347 328 325 297 259 264 269
4 355 333 323 319 321 308 281 238 212 240 240 210 198 200 207 200 182 185 188 198 205 209 208 194 182 180 186 203 285 225 253 274 267 261 256 294 308 309 308 262 269 290
346 352 335 330 329 327 307 301 285 266 254 219 208 208 202 215 200 182 188 188 195 209 217 208 203 197 185 167 207 258 283 312 276 272 273 261 283 296 306 305 297 297 304
323 339 326 320 329 337 328 306 312 343 253 195 206 208 198 192 188 187 186 180 193 204 208 200 207 213 191 187 203 246 277 303 304 285 301 300 299 300 292 295 301 296 269
323 326 311 311 326 336 331 337 340 333 277 210 217 199 184 171 161 169 180 178 195 200 202 201 208 216 201 178 189 223 253 286 309 319 280 280 273 290 289 303 292 267 255
335 334 315 313 323 338 338 348 351 349 294 234 221 194 177 177 174 164 202 197 204 197 200 207 202 197 210 228 221 221 231 233 245 279 276 242 259 270 273 263 259 271 279
325 327 322 321 319 330 332 351 358 339 310 252 210 186 176 181 173 172 168 16 219 209 202 198 194 207 210 212 180 217 263 262 238 171 200 217 221 230 243 259 265 268 271